This is the latest recevied weather packets stored in our database for station/object WA2TQI. If no packets are shown the sender has not sent any weather packets the latest 10 day(s).
| Time | Temp. | Humidity | Pressure | Rain* | Wind** | Luminosity | Snow |
|---|---|---|---|---|---|---|---|
| 1777469323 | 15.56° C | 63% | 1016.6 hPa | 0 mm | - | - | - |
| 1777469019 | 15° C | 64% | 1016.8 hPa | 0 mm | - | - | - |
| 1777468714 | 15° C | 64% | 1016.6 hPa | 0 mm | - | - | - |
| 1777468411 | 14.44° C | 64% | 1016.7 hPa | 0 mm | - | - | - |
| 1777468107 | 14.44° C | 64% | 1016.8 hPa | 0 mm | - | - | - |
| 1777467499 | 15° C | 64% | 1016.6 hPa | 0 mm | - | - | - |
| 1777466285 | 13.89° C | 68% | 1016.9 hPa | 0 mm | - | - | - |
| 1777465981 | 13.89° C | 69% | 1016.7 hPa | 0 mm | - | - | - |
| 1777465678 | 13.89° C | 69% | 1016.8 hPa | 0 mm | - | - | - |
| 1777465374 | 13.33° C | 70% | 1016.9 hPa | 0 mm | - | - | - |
| 1777465072 | 13.33° C | 71% | 1016.8 hPa | 0 mm | - | - | - |
| 1777464768 | 13.33° C | 71% | 1016.8 hPa | 0 mm | - | - | - |
| 1777464464 | 13.33° C | 72% | 1016.7 hPa | 0 mm | - | - | - |
| 1777463859 | 12.22° C | 75% | 1016.7 hPa | 0 mm | - | - | - |
| 1777463556 | 12.22° C | 77% | 1016.9 hPa | 0 mm | - | - | - |
| 1777463251 | 12.22° C | 79% | 1016.9 hPa | 0 mm | - | - | - |
| 1777462643 | 11.67° C | 81% | 1017 hPa | 0 mm | - | - | - |
| 1777462338 | 11.67° C | 81% | 1017.3 hPa | 0 mm | - | - | - |
| 1777462034 | 11.11° C | 81% | 1017.3 hPa | 0 mm | - | - | - |
| 1777461732 | 11.11° C | 81% | 1017.3 hPa | 0 mm | - | - | - |
| 1777461427 | 11.11° C | 82% | 1017.2 hPa | 0 mm | - | - | - |
| 1777461124 | 11.11° C | 83% | 1017.1 hPa | 0 mm | - | - | - |
| 1777460819 | 10.56° C | 83% | 1017.2 hPa | 0 mm | - | - | - |
| 1777460515 | 10.56° C | 84% | 1016.8 hPa | 0 mm | - | - | - |
| 1777460211 | 10.56° C | 85% | 1017 hPa | 0 mm | - | - | - |
* Rain latest hour (hover to see other rain measurements)
** Current wind speed in m/s (hover to see current wind gust speed)